PBO Station Position Time Series. Reference Frame : NAM14
Format Version,1.1.1
4-character ID,AC51
Station name,StrandlineAK2007
Begin Date, 2007-09-11
End Date, 2023-06-26
Release Date, 2023-06-27
Reference position, 61.4980827425 North Latitude, -151.8353480496 East Longitude, 957.42641 meters elevation,
Date, North (mm), East (mm), Vertical (mm), North Std. Deviation (mm), East Std. Deviation (mm),              Vertical Std. Deviation (mm), Quality,
2007-09-11,0.00, 0.00, 0.00, 2.42, 1.64, 7.94, repro,
2007-09-12,-2.79, 0.13, 3.49, 2.51, 1.68, 8.19, repro,
2007-09-13,0.49, -0.31, 6.01, 2.57, 1.73, 8.55, repro,
2007-09-14,-1.34, -0.03, 9.05, 2.57, 1.74, 8.41, repro,
2007-09-15,-2.55, -0.38, 9.91, 2.57, 1.80, 8.49, repro,
2007-09-16,-2.70, -0.82, 9.06, 2.49, 1.69, 8.06, repro,
2007-09-17,-1.45, -0.34, 8.02, 2.50, 1.69, 8.20, repro,
2007-09-18,-2.05, -0.49, 5.10, 2.62, 1.76, 8.63, repro,
2007-09-19,-1.46, -1.91, 0.85, 2.56, 1.71, 8.39, repro,
2007-09-20,-2.42, -0.08, 7.92, 2.55, 1.72, 8.40, repro,
2007-09-21,-0.48, -0.57, 1.29, 2.42, 1.64, 7.92, repro,
2007-09-22,-0.91, -0.14, 13.53, 2.43, 1.65, 7.91, repro,
2007-09-23,-2.34, -1.83, 15.25, 2.56, 1.70, 8.28, repro,
2007-09-24,-0.80, -0.45, 4.92, 2.63, 1.78, 8.85, repro,
2007-09-25,-1.22, -0.24, 8.03, 2.58, 1.74, 8.53, repro,
2007-09-26,-1.71, -0.71, 12.80, 2.51, 1.71, 8.20, repro,
2007-09-27,-1.12, -0.54, 5.39, 2.54, 1.71, 8.20, repro,
2007-09-28,-1.76, -0.43, 13.66, 2.46, 1.64, 7.95, repro,
2007-09-29,-2.15, -0.29, 13.86, 2.51, 1.66, 8.12, repro,
2007-09-30,-2.89, -0.17, 19.24, 2.62, 1.75, 8.50, repro,
2007-10-01,-2.96, -0.44, 19.38, 2.54, 1.68, 8.18, repro,
2007-10-02,-3.89, -0.97, 14.77, 2.59, 1.75, 8.38, repro,
2007-10-03,-2.13, -1.96, 11.98, 2.57, 1.75, 8.35, repro,
2007-10-04,-1.23, -0.69, 7.30, 2.43, 1.63, 7.90, repro,
2007-10-05,-1.46, -0.61, 17.86, 2.32, 1.55, 7.45, repro,
2007-10-06,-2.01, -0.73, 14.85, 2.34, 1.56, 7.50, repro,
2007-10-07,-0.03, -1.24, 16.31, 2.38, 1.57, 7.61, repro,
2007-10-08,-0.61, -0.46, 9.00, 2.52, 1.70, 8.15, repro,
2007-10-09,-0.62, -0.98, 10.32, 2.49, 1.71, 7.96, repro,
2007-10-10,-0.02, -0.57, 15.36, 2.43, 1.68, 8.09, repro,
2007-10-11,-1.62, -0.47, 15.65, 2.31, 1.53, 7.40, repro,
2007-10-12,-1.30, -0.78, 15.96, 2.29, 1.52, 7.30, repro,
2007-10-13,-1.35, -0.04, 15.63, 2.41, 1.60, 7.80, repro,
2007-10-14,-2.25, -0.26, 16.41, 2.42, 1.61, 7.82, repro,
2007-10-15,-2.42, -0.31, 16.47, 2.39, 1.61, 7.79, repro,
2007-10-16,-0.98, -0.71, 17.60, 2.38, 1.59, 7.71, repro,
2007-10-17,0.21, -0.98, 16.15, 2.58, 1.74, 8.42, repro,
2007-10-18,-0.36, -1.09, 21.57, 2.45, 1.63, 7.90, repro,
2007-10-19,-1.41, -0.64, 19.47, 2.38, 1.60, 7.78, repro,
2007-10-20,-0.08, -1.14, 20.21, 2.35, 1.57, 7.72, repro,
2007-10-21,0.34, -0.27, 16.13, 2.31, 1.55, 7.48, repro,
2007-10-22,0.57, -1.07, 13.93, 2.35, 1.57, 7.51, repro,
2007-10-23,-0.22, -2.01, 11.72, 2.50, 1.69, 7.96, repro,
2007-10-24,-0.72, -1.40, 10.26, 2.47, 1.65, 8.02, repro,
2007-10-25,0.29, 0.26, 8.97, 2.36, 1.57, 7.52, repro,
2007-10-26,-0.42, -0.45, 11.85, 2.42, 1.61, 7.86, repro,
2007-10-27,-1.04, -1.42, 11.98, 2.40, 1.61, 7.75, repro,
2007-10-28,-0.52, -0.58, 11.94, 2.43, 1.62, 7.88, repro,
2007-10-29,-1.40, -1.41, 14.35, 2.36, 1.57, 7.57, repro,
2007-10-30,-0.97, -0.23, 20.76, 2.42, 1.63, 7.81, repro,
2007-10-31,-1.47, -0.49, 19.31, 2.42, 1.60, 7.77, repro,
2007-11-01,-0.67, -1.22, 18.01, 2.29, 1.52, 7.36, repro,
2007-11-02,-0.62, -2.27, 16.40, 2.28, 1.51, 7.30, repro,
2007-11-03,0.83, -2.14, 14.04, 2.31, 1.52, 7.40, repro,
2007-11-04,3.57, -3.84, 12.79, 2.30, 1.52, 7.35, repro,
2007-11-05,6.23, -6.35, 16.65, 2.29, 1.52, 7.33, repro,
2007-11-06,6.34, -5.86, 19.22, 2.29, 1.51, 7.30, repro,
2007-11-07,8.65, -6.05, 20.53, 2.28, 1.51, 7.27, repro,
2007-11-08,7.57, -7.56, 20.45, 2.35, 1.54, 7.40, repro,
2007-11-09,7.28, -8.01, 28.31, 2.36, 1.56, 7.44, repro,
2007-11-10,9.97, -7.62, 29.13, 2.31, 1.53, 7.42, repro,
2007-11-11,11.19, -7.98, 29.57, 2.27, 1.52, 7.25, repro,
2007-11-12,12.36, -7.97, 19.97, 2.32, 1.57, 7.43, repro,
2007-11-13,12.80, -8.36, 20.48, 2.29, 1.53, 7.37, repro,
2007-11-14,11.78, -8.01, 18.91, 2.29, 1.52, 7.33, repro,
2007-11-15,11.38, -8.04, 25.47, 2.30, 1.52, 7.37, repro,
2007-11-16,-0.69, -1.25, 21.17, 2.29, 1.52, 7.29, repro,
2007-11-17,-3.22, -0.19, 17.12, 2.29, 1.51, 7.29, repro,
2007-11-18,-2.16, -0.44, 9.16, 2.33, 1.52, 7.41, repro,
2007-11-19,-3.06, -1.64, 6.41, 2.40, 1.58, 7.72, repro,
2007-11-20,-3.37, 0.13, 11.42, 2.42, 1.59, 7.75, repro,
2007-11-21,-4.16, 0.61, 13.77, 2.42, 1.59, 7.74, repro,
2007-11-22,-4.43, 1.39, 11.04, 2.35, 1.53, 7.42, repro,
2007-11-23,-3.01, 1.23, 14.06, 2.45, 1.60, 7.82, repro,
2007-11-24,-0.98, 1.91, 18.35, 2.38, 1.55, 7.53, repro,
2007-11-25,-2.04, 2.05, 11.72, 2.34, 1.55, 7.51, repro,
2007-11-26,-1.90, 1.84, 11.34, 2.57, 1.74, 8.60, repro,
2007-11-27,-3.24, -0.06, 3.62, 2.41, 1.58, 7.85, repro,
2007-11-28,-2.56, 0.88, -1.73, 2.35, 1.55, 7.51, repro,
2007-11-29,-2.62, 0.82, -5.96, 2.49, 1.65, 8.34, repro,
2007-11-30,-2.41, 0.94, -6.50, 2.45, 1.59, 7.83, repro,
2007-12-01,-3.19, 1.18, -8.16, 2.61, 1.74, 8.76, repro,
2007-12-02,-2.04, -0.78, -2.57, 2.67, 1.82, 9.24, repro,
2007-12-03,-2.39, -0.51, 7.56, 2.50, 1.66, 8.34, repro,
2007-12-04,-2.76, 0.58, 6.60, 2.61, 1.79, 8.97, repro,
2007-12-05,-2.41, -0.25, 2.02, 2.64, 1.79, 9.06, repro,
2007-12-06,-1.53, 0.26, 8.10, 2.61, 1.81, 9.23, repro,
2007-12-07,-3.46, -1.07, 7.58, 2.79, 1.91, 9.41, repro,
2007-12-08,2.15, -2.71, 11.17, 2.47, 1.63, 8.31, repro,
2007-12-09,5.47, -2.78, 7.10, 2.69, 1.90, 9.31, repro,
2007-12-10,6.76, -1.21, 12.62, 2.48, 1.62, 8.31, repro,
2007-12-11,8.78, -3.14, 15.22, 2.48, 1.63, 8.33, repro,
2007-12-12,8.45, -2.76, 11.37, 2.44, 1.63, 8.33, repro,
2007-12-13,8.54, -3.93, 11.78, 2.48, 1.64, 8.12, repro,
2007-12-14,9.12, -3.03, 10.02, 2.33, 1.54, 7.50, repro,
2007-12-15,7.04, -1.94, 20.41, 2.39, 1.57, 7.65, repro,
2007-12-16,-0.86, -0.15, 7.52, 2.41, 1.57, 7.71, repro,
2007-12-17,-3.07, -0.18, 6.32, 2.45, 1.61, 7.85, repro,
2007-12-18,-2.39, -0.07, 11.08, 2.48, 1.64, 8.24, repro,
2007-12-19,-1.05, 0.59, 6.12, 2.50, 1.69, 8.39, repro,
2007-12-20,-2.37, -0.44, 5.02, 2.37, 1.58, 7.77, repro,
2007-12-21,-1.99, 0.68, 0.70, 2.52, 1.69, 8.40, repro,
2007-12-22,-3.59, 0.82, 9.04, 2.63, 1.75, 9.03, repro,
2007-12-23,-2.43, 0.05, 8.00, 2.42, 1.60, 8.04, repro,
2007-12-24,-2.66, -0.45, 5.83, 2.41, 1.61, 8.02, repro,
2007-12-25,-4.24, -0.89, 2.70, 2.34, 1.57, 7.75, repro,
2007-12-26,-3.42, -0.54, -1.83, 2.46, 1.67, 8.25, repro,
2007-12-27,-4.36, -0.06, 2.96, 2.53, 1.65, 8.20, repro,
2007-12-28,-2.68, -0.91, 4.09, 2.46, 1.61, 7.98, repro,
2007-12-29,-2.39, -0.62, 0.98, 2.41, 1.58, 7.73, repro,
2007-12-30,-2.17, -0.80, -5.94, 2.37, 1.57, 7.57, repro,
2007-12-31,-0.75, -0.60, -4.70, 2.31, 1.54, 7.47, repro,
2008-01-01,-3.03, -1.07, -4.89, 2.33, 1.54, 7.52, repro,
2008-01-02,-0.93, -0.33, 7.59, 2.33, 1.54, 7.52, repro,
2008-01-03,-1.30, -0.17, 11.32, 2.33, 1.58, 7.57, repro,
2008-01-04,-1.32, -0.68, 13.18, 2.32, 1.58, 7.49, repro,
2008-01-05,-2.04, 0.27, 11.04, 2.27, 1.53, 7.27, repro,
2008-01-06,-2.56, -0.39, 4.31, 2.29, 1.53, 7.35, repro,
2008-01-07,-3.03, -0.56, 5.94, 2.29, 1.52, 7.33, repro,
2008-01-08,-1.16, -0.45, 5.66, 2.32, 1.55, 7.57, repro,
2008-01-09,-1.55, -0.99, 9.04, 2.30, 1.54, 7.56, repro,
2008-01-10,-2.22, -0.13, 4.26, 2.26, 1.52, 7.25, repro,
2008-01-11,-2.02, -0.85, 3.15, 2.31, 1.53, 7.42, repro,
2008-01-12,-1.34, -0.91, 0.70, 2.32, 1.53, 7.34, repro,
2008-01-13,-1.32, -0.81, -0.29, 2.30, 1.52, 7.32, repro,
2008-01-14,-0.94, -0.75, 0.11, 2.32, 1.55, 7.62, repro,
2008-01-15,-0.74, 0.54, -0.17, 2.28, 1.53, 7.31, repro,
2008-01-16,-3.31, -1.06, -4.35, 2.30, 1.53, 7.44, repro,
2008-01-17,-3.52, 1.63, -14.64, 2.34, 1.54, 7.60, repro,
2008-01-18,-1.59, -0.41, -14.24, 2.36, 1.55, 7.51, repro,
2008-01-19,-3.86, -1.24, -15.42, 2.32, 1.54, 7.55, repro,
2008-01-20,-3.00, -0.42, -9.03, 2.28, 1.52, 7.36, repro,
2008-01-21,-0.05, -1.57, -1.96, 2.33, 1.57, 7.43, repro,
2008-01-22,8.10, 1.90, 18.45, 2.29, 1.52, 7.30, repro,
2008-01-23,5.67, -0.12, 13.74, 2.33, 1.53, 7.48, repro,
2008-01-24,-0.05, 0.77, 3.88, 2.31, 1.54, 7.45, repro,
2008-01-25,-1.30, 1.46, 10.08, 2.37, 1.58, 8.07, repro,
2008-01-26,0.12, 0.94, 3.51, 2.32, 1.55, 7.57, repro,
2008-01-27,0.24, 0.36, 1.79, 2.32, 1.55, 7.57, repro,
2008-01-28,-0.77, 1.03, 6.74, 2.33, 1.55, 7.61, repro,
2008-01-29,-0.22, 0.39, -3.69, 2.50, 1.72, 8.33, repro,
2008-01-30,-0.76, -1.91, -1.67, 2.61, 1.79, 8.93, repro,
2008-01-31,-0.50, -2.78, 0.80, 2.37, 1.58, 8.10, repro,
2008-02-01,-0.03, -2.03, 0.17, 2.37, 1.60, 7.87, repro,
2008-02-02,-0.56, -2.02, -1.17, 2.39, 1.60, 7.87, repro,
2008-02-03,-1.26, -3.24, -1.06, 2.32, 1.53, 7.36, repro,
2008-02-04,-0.33, -2.03, -1.70, 2.29, 1.53, 7.31, repro,
2008-02-05,0.57, -2.22, -0.15, 2.39, 1.62, 7.74, repro,
2008-02-06,0.94, -2.38, 1.79, 2.38, 1.61, 7.70, repro,
2008-02-07,-0.17, -2.28, 0.60, 2.36, 1.56, 7.52, repro,
2008-02-08,0.03, -1.49, -11.39, 2.30, 1.52, 7.31, repro,
2008-02-09,0.64, -1.50, -1.53, 2.32, 1.53, 7.47, repro,
2008-02-10,0.34, -1.40, 3.92, 2.28, 1.53, 7.34, repro,
2008-02-11,-1.51, -1.25, 4.51, 2.32, 1.53, 7.48, repro,
2008-02-12,1.71, -2.09, 1.93, 2.30, 1.52, 7.39, repro,
2008-02-13,-0.78, -2.43, 2.42, 2.29, 1.51, 7.28, repro,
2008-02-14,-1.95, -1.28, 6.38, 2.30, 1.52, 7.35, repro,
2008-02-15,-3.05, -2.99, 3.86, 2.33, 1.55, 7.53, repro,
2008-02-16,-1.81, -1.94, -3.57, 2.28, 1.52, 7.31, repro,
2008-02-17,0.85, -1.78, -0.32, 2.30, 1.52, 7.38, repro,
2008-02-18,0.67, -2.01, 3.74, 2.31, 1.53, 7.39, repro,
2008-02-19,-1.18, -1.41, 7.81, 2.31, 1.52, 7.35, repro,
2008-02-20,4.20, -1.61, 7.38, 2.36, 1.54, 7.55, repro,
2008-02-21,3.01, -1.32, 9.29, 2.28, 1.52, 7.31, repro,
2008-02-22,1.29, -1.46, 4.68, 2.29, 1.53, 7.32, repro,
2008-02-23,1.30, -1.31, -1.40, 2.37, 1.56, 7.57, repro,
2008-02-24,-0.60, -1.78, -11.60, 2.32, 1.53, 7.48, repro,
2008-02-25,-0.59, -1.61, -10.18, 2.30, 1.53, 7.38, repro,
2008-02-26,-0.78, -1.51, -9.92, 2.30, 1.53, 7.36, repro,
2008-02-27,-1.74, -0.69, -7.13, 2.29, 1.52, 7.34, repro,
2008-02-28,-1.77, -2.04, -8.10, 2.35, 1.56, 7.59, repro,
2008-02-29,-2.64, -1.78, -8.17, 2.34, 1.55, 7.54, repro,
2008-03-01,-1.08, -1.50, -5.25, 2.30, 1.52, 7.34, repro,
2008-03-02,-1.27, -1.18, -10.13, 2.32, 1.52, 7.41, repro,
2008-03-03,-1.00, -0.86, -9.83, 2.30, 1.53, 7.42, repro,
2008-03-04,-1.26, 0.06, -8.45, 2.28, 1.52, 7.33, repro,
2008-03-05,-3.27, -0.25, -4.44, 2.37, 1.59, 7.69, repro,
2008-03-06,-1.60, -1.03, -2.72, 2.32, 1.54, 7.48, repro,
2008-03-07,-1.96, -0.41, -6.24, 2.34, 1.55, 7.61, repro,
2008-03-08,-0.00, 0.84, -0.78, 2.33, 1.54, 7.52, repro,
2008-03-09,-4.64, -0.10, 0.84, 2.42, 1.66, 7.95, repro,
2008-03-10,-2.24, -1.22, -2.66, 2.37, 1.55, 7.66, repro,
2008-03-11,-2.54, -1.20, -10.79, 2.32, 1.56, 7.55, repro,
2008-03-12,-4.11, -1.28, -10.68, 2.43, 1.60, 7.92, repro,
2008-03-13,-2.77, -1.56, -13.69, 2.33, 1.55, 7.56, repro,
2008-03-14,-2.19, -1.51, -15.42, 2.51, 1.75, 8.22, repro,
2008-03-15,-3.12, -0.72, -11.76, 2.63, 1.85, 8.51, repro,
2008-03-16,-3.68, -1.41, -9.05, 2.92, 1.88, 8.86, repro,
2008-03-17,-3.87, -2.38, -10.16, 3.04, 1.99, 9.11, repro,
2008-03-18,-3.71, -1.73, -12.71, 2.46, 1.64, 7.89, repro,
2008-03-19,-2.91, -2.66, -12.22, 2.39, 1.58, 7.62, repro,
2008-03-20,-3.39, -2.08, -16.18, 2.38, 1.56, 7.54, repro,
2008-03-21,-4.78, -2.16, -14.31, 2.38, 1.57, 7.57, repro,
2008-03-22,-4.53, -1.88, -14.08, 2.41, 1.60, 7.74, repro,
2008-03-23,-5.17, -2.66, -12.70, 2.46, 1.62, 7.89, repro,
2008-03-24,-3.37, -1.82, -7.13, 2.40, 1.61, 7.76, repro,
2008-03-25,-4.50, -2.36, -14.79, 2.86, 1.96, 9.17, repro,
2008-03-26,-3.94, -2.50, -15.88, 2.48, 1.66, 8.14, repro,
2008-03-27,-2.79, -2.85, -19.95, 2.78, 1.96, 8.83, repro,
2008-03-28,-3.30, -2.54, -18.70, 2.44, 1.61, 7.80, repro,
2008-03-29,-3.84, -3.01, -24.17, 3.10, 2.26, 10.49, repro,
2008-03-30,-3.23, -1.60, -14.15, 2.31, 1.53, 7.36, repro,
2008-03-31,-3.24, -1.85, -14.87, 2.32, 1.55, 7.41, repro,
2008-04-01,-2.36, -2.44, -17.16, 2.42, 1.59, 7.76, repro,
2008-04-02,-2.86, -1.79, -17.71, 2.57, 1.73, 8.57, repro,
2008-04-03,-6.89, -0.24, -21.98, 3.20, 2.15, 10.41, repro,
2008-04-04,-0.86, -0.01, -6.47, 2.39, 1.59, 7.71, repro,
2008-04-05,1.19, 0.03, -3.56, 2.41, 1.57, 7.76, repro,
2008-04-06,-0.76, -0.17, -13.57, 2.33, 1.56, 7.50, repro,
2008-04-07,-3.44, -2.00, -20.17, 3.16, 2.03, 9.66, repro,
2008-06-05,-1.03, -3.53, -1.95, 7.26, 5.58, 21.28, repro,
2008-06-06,-1.69, -1.99, -7.13, 2.81, 1.94, 9.35, repro,
2008-06-07,-3.10, -2.37, -13.75, 3.16, 2.22, 10.37, repro,
2008-06-08,-2.59, -2.52, -11.38, 2.86, 1.97, 9.72, repro,
2008-06-09,-2.68, -1.58, -14.24, 2.82, 2.05, 10.15, repro,
2008-06-10,-1.48, -2.87, -14.07, 2.88, 1.91, 10.15, repro,
2008-06-11,-2.23, -0.77, -22.09, 3.20, 2.14, 10.57, repro,
2008-06-12,-2.81, -2.39, -18.44, 2.72, 1.87, 9.28, repro,
2008-06-13,-0.26, -2.47, -17.93, 2.75, 1.90, 9.13, repro,
2008-06-14,-2.36, -1.75, -10.72, 2.82, 1.95, 9.64, repro,
2008-06-15,-3.07, -2.02, -12.28, 2.86, 1.97, 9.80, repro,
2008-06-16,-1.81, -1.09, -14.24, 2.82, 1.96, 9.63, repro,
2008-06-17,-2.45, -1.75, -14.16, 2.88, 1.87, 9.18, repro,
2008-06-18,-1.39, -1.49, -12.05, 2.76, 1.79, 8.73, repro,
2008-06-19,-3.19, -0.93, -14.33, 3.19, 2.09, 10.40, repro,
2008-06-20,-2.63, -1.39, -8.55, 2.72, 1.82, 8.80, repro,
2008-06-21,-1.62, -0.90, -14.70, 3.75, 2.47, 13.07, repro,
2008-06-22,-2.33, -1.85, -3.82, 3.46, 2.19, 11.99, repro,
2008-06-23,-1.34, -1.48, -7.56, 2.80, 1.93, 9.40, repro,
2008-06-24,-2.94, -1.47, -5.14, 3.44, 2.40, 13.11, repro,
2008-06-25,-1.25, -0.13, -6.47, 3.04, 2.12, 10.91, repro,
2008-06-26,-2.63, -0.66, 2.82, 3.00, 2.05, 10.51, repro,
2008-06-27,-4.97, -0.22, 2.37, 3.06, 2.09, 10.86, repro,
2008-06-28,-2.71, -0.17, -0.02, 2.91, 1.94, 10.09, repro,
2008-06-29,-2.51, -0.15, -3.79, 2.92, 1.96, 10.02, repro,
2008-06-30,-3.65, -1.31, -7.65, 2.80, 1.99, 9.80, repro,
2008-07-01,-4.38, -0.24, -10.25, 2.80, 1.95, 9.31, repro,
2008-07-02,-4.52, 0.72, -5.00, 2.75, 1.85, 9.03, repro,
2008-07-03,-3.01, 0.63, -6.19, 3.30, 2.03, 9.83, repro,
2008-07-04,-3.83, -1.48, 2.22, 4.00, 2.66, 13.51, repro,
2008-07-05,-1.77, -1.24, 3.00, 2.40, 1.62, 7.87, repro,
2008-07-06,-2.01, 0.73, -0.75, 2.82, 1.81, 8.75, repro,
2008-07-07,-2.94, -0.15, 2.72, 3.38, 2.15, 11.33, repro,
2008-07-08,-2.27, -1.01, -0.26, 4.15, 2.70, 15.26, repro,
2008-07-09,-4.81, -0.33, 5.10, 3.52, 2.52, 12.86, repro,
2008-07-10,6.03, -3.13, -0.04, 3.40, 2.20, 11.30, repro,
2008-07-11,2.28, -4.09, -2.28, 2.45, 1.69, 7.95, repro,
2008-07-12,1.81, -3.97, 0.97, 2.29, 1.53, 7.32, repro,
2008-07-13,3.49, -4.15, -0.01, 2.27, 1.52, 7.25, repro,
2008-07-14,2.25, -3.57, 0.47, 2.29, 1.53, 7.32, repro,
2008-07-15,1.89, -3.90, -4.05, 2.28, 1.53, 7.27, repro,
2008-07-16,2.96, -3.66, 2.79, 2.27, 1.53, 7.28, repro,
2008-07-17,1.08, -3.60, 3.95, 2.27, 1.53, 7.25, repro,
2008-07-18,1.74, -4.82, 9.23, 2.30, 1.55, 7.55, repro,
2008-07-19,3.12, -4.46, 6.14, 2.31, 1.55, 7.57, repro,
2008-07-20,1.68, -4.42, 6.89, 2.29, 1.53, 7.32, repro,
2008-07-21,1.15, -4.33, 8.33, 2.27, 1.55, 7.31, repro,
2008-07-22,2.36, -3.29, 1.92, 2.26, 1.53, 7.24, repro,
2008-07-23,3.23, -3.76, -2.72, 2.32, 1.57, 7.54, repro,
2008-07-24,2.12, -3.91, -0.40, 2.26, 1.52, 7.24, repro,
2008-07-25,1.34, -3.59, -4.14, 2.29, 1.54, 7.35, repro,
2008-07-26,2.58, -2.81, 5.53, 2.28, 1.53, 7.33, repro,
2008-07-27,1.65, -3.12, 6.03, 2.29, 1.57, 7.32, repro,
2008-07-28,2.61, -3.93, 4.13, 2.33, 1.59, 7.41, repro,
2008-07-29,1.20, -3.76, 10.71, 2.30, 1.58, 7.35, repro,
2008-07-30,1.95, -4.37, 8.96, 2.37, 1.65, 7.55, repro,
2008-07-31,4.70, -2.96, 10.29, 2.30, 1.54, 7.38, repro,
2008-08-01,2.40, -3.96, 6.88, 2.28, 1.54, 7.30, repro,
2008-08-02,3.62, -2.93, 6.77, 2.26, 1.52, 7.22, repro,
2008-08-03,2.64, -2.20, 2.77, 2.28, 1.54, 7.42, repro,
2008-08-04,3.74, -2.77, -1.33, 2.31, 1.58, 7.38, repro,
2008-08-05,0.96, -2.88, 3.15, 2.29, 1.53, 7.32, repro,
2008-08-06,3.12, -3.02, 5.96, 2.30, 1.55, 7.44, repro,
2008-08-07,2.25, -3.13, 6.51, 2.37, 1.58, 7.55, repro,
2008-08-08,2.31, -3.24, 3.14, 2.38, 1.58, 7.55, repro,
2008-08-09,2.30, -2.86, 3.42, 2.28, 1.55, 7.38, repro,
2008-08-10,1.41, -3.44, 2.68, 2.31, 1.55, 7.47, repro,
2008-08-11,2.94, -3.68, 3.54, 2.38, 1.58, 7.58, repro,
2008-08-12,2.14, -2.80, 9.68, 2.32, 1.60, 7.52, repro,
2008-08-13,1.24, -2.15, 10.06, 2.31, 1.60, 7.49, repro,
2008-08-14,2.22, -2.94, 9.92, 2.29, 1.55, 7.40, repro,
2008-08-15,2.49, -3.06, 1.30, 2.34, 1.61, 7.54, repro,
2008-08-16,2.05, -2.90, 3.62, 2.31, 1.55, 7.46, repro,
2008-08-17,1.47, -2.55, 7.96, 2.32, 1.59, 7.52, repro,
2008-08-18,1.07, -3.39, 10.10, 2.36, 1.60, 7.52, repro,
2008-08-19,2.08, -3.07, 11.80, 2.30, 1.55, 7.42, repro,
2008-08-20,0.75, -2.71, 10.86, 2.29, 1.55, 7.43, repro,
2008-08-21,1.74, -3.25, 10.54, 2.30, 1.55, 7.46, repro,
2008-08-22,0.38, -2.36, 17.08, 2.29, 1.54, 7.40, repro,
2008-08-23,0.18, -2.55, 12.04, 2.29, 1.54, 7.39, repro,
2008-08-24,0.40, -2.55, 10.90, 2.33, 1.57, 7.50, repro,
2008-08-25,0.70, -2.30, 13.12, 2.29, 1.55, 7.42, repro,
2008-08-26,0.41, -2.98, 12.77, 2.29, 1.55, 7.41, repro,
2008-08-27,1.14, -3.01, 13.66, 2.36, 1.56, 7.59, repro,
2008-08-28,0.94, -2.63, 10.77, 2.43, 1.63, 7.78, repro,
2008-08-29,0.15, -3.08, 7.85, 2.36, 1.57, 7.58, repro,
2008-08-30,2.11, -3.09, 4.69, 2.33, 1.56, 7.55, repro,
2008-08-31,1.54, -2.95, 8.61, 2.34, 1.57, 7.58, repro,
2008-09-01,0.29, -1.98, 10.80, 2.35, 1.56, 7.58, repro,
2008-09-02,1.26, -2.40, 8.61, 2.34, 1.55, 7.51, repro,
2008-09-03,0.58, -3.27, 8.26, 2.35, 1.56, 7.60, repro,
2008-09-04,0.09, -2.98, -0.39, 2.53, 1.67, 8.16, repro,
2008-09-05,-0.22, -2.82, 7.59, 2.39, 1.63, 7.79, repro,
2008-09-06,0.39, -3.01, 4.89, 2.33, 1.56, 7.57, repro,
2008-09-07,1.91, -3.21, 1.19, 2.38, 1.62, 7.64, repro,
2008-09-08,1.27, -3.15, 7.08, 2.36, 1.57, 7.60, repro,
2008-09-09,0.36, -2.55, 11.26, 2.36, 1.57, 7.60, repro,
2008-09-10,0.32, -3.01, 10.11, 2.39, 1.60, 7.68, repro,
2008-09-11,0.81, -3.22, 6.31, 2.39, 1.60, 7.65, repro,
2008-09-12,0.64, -2.25, 15.16, 2.34, 1.57, 7.54, repro,
2008-09-13,1.60, -2.18, 8.17, 2.34, 1.56, 7.56, repro,
2008-09-14,0.18, -2.59, 9.40, 2.35, 1.56, 7.58, repro,
2008-09-15,1.21, -3.21, 8.26, 2.39, 1.60, 7.72, repro,
2008-09-16,-0.22, -3.43, 7.64, 2.33, 1.57, 7.60, repro,
2008-09-17,0.16, -4.23, 5.84, 2.34, 1.60, 7.90, repro,
2008-09-18,1.09, -2.26, 7.55, 2.30, 1.55, 7.45, repro,
2008-09-19,0.33, -2.50, 11.12, 2.31, 1.55, 7.45, repro,
2008-09-20,0.88, -3.56, 10.56, 2.29, 1.54, 7.39, repro,
2008-09-21,0.76, -3.95, 9.57, 2.28, 1.54, 7.36, repro,
2008-09-22,0.74, -3.90, 7.44, 2.27, 1.54, 7.37, repro,
2008-09-23,1.68, -2.99, 4.43, 2.28, 1.54, 7.39, repro,
2008-09-24,2.72, -5.28, 7.90, 2.30, 1.54, 7.41, repro,
2008-09-25,3.34, -3.63, 6.74, 2.30, 1.54, 7.39, repro,
2008-09-26,1.46, -4.35, 4.86, 2.28, 1.54, 7.37, repro,
2008-09-27,0.28, -2.78, 10.49, 2.29, 1.54, 7.38, repro,
2008-09-28,-0.39, -2.80, 10.32, 2.33, 1.58, 7.56, repro,
2008-09-29,1.61, -2.48, 7.98, 2.30, 1.55, 7.46, repro,
2008-09-30,0.46, -3.62, 11.17, 2.30, 1.54, 7.44, repro,
2008-10-01,0.55, -2.75, 7.17, 2.30, 1.54, 7.42, repro,
2008-10-02,2.12, -2.95, 17.87, 2.29, 1.55, 7.37, repro,
2008-10-03,0.67, -3.05, 16.19, 2.28, 1.54, 7.39, repro,
2008-10-04,0.40, -3.11, 15.92, 2.29, 1.55, 7.42, repro,
2008-10-05,0.73, -2.61, 17.16, 2.30, 1.55, 7.45, repro,
2008-10-06,1.90, -2.58, 14.72, 2.28, 1.53, 7.34, repro,
2008-10-07,1.80, -3.32, 14.39, 2.29, 1.55, 7.42, repro,
2008-10-08,1.72, -3.37, 5.46, 2.34, 1.57, 7.41, repro,
2008-10-09,1.42, -2.88, 6.32, 2.25, 1.52, 7.22, repro,
2008-10-10,1.56, -2.56, 3.75, 2.27, 1.53, 7.27, repro,
2008-10-11,1.90, -1.05, 9.99, 2.34, 1.55, 7.42, repro,
2008-10-12,4.61, -2.82, 4.02, 2.25, 1.52, 7.19, repro,
2008-10-13,4.15, -2.82, 8.35, 2.27, 1.53, 7.28, repro,
2008-10-14,5.25, -2.48, 7.36, 2.26, 1.52, 7.23, repro,
2008-10-15,4.03, -2.51, 11.43, 2.30, 1.55, 7.53, repro,
2008-10-16,3.26, -2.45, 6.62, 2.32, 1.56, 7.58, repro,
2008-10-17,2.94, -2.01, 1.35, 2.26, 1.52, 7.20, repro,
2008-10-18,2.53, -1.98, 3.15, 2.27, 1.53, 7.26, repro,
2008-10-19,0.52, -2.15, 11.76, 2.27, 1.53, 7.28, repro,
2008-10-20,1.65, -2.82, 4.71, 2.26, 1.53, 7.24, repro,
2008-10-21,2.80, -3.26, 6.35, 2.26, 1.52, 7.25, repro,
2008-10-22,0.37, -3.64, 7.97, 2.25, 1.52, 7.16, repro,
2008-10-23,1.83, -3.96, 14.93, 2.27, 1.53, 7.24, repro,
2008-10-24,0.08, -3.28, 19.45, 2.28, 1.53, 7.29, repro,
2008-10-25,0.81, -3.96, 2.28, 2.28, 1.53, 7.31, repro,
2008-10-26,1.35, -3.54, 2.81, 2.26, 1.52, 7.24, repro,
2008-10-27,1.61, -4.03, 4.38, 2.30, 1.55, 7.50, repro,
2008-10-28,1.35, -3.71, 1.45, 2.33, 1.57, 7.38, repro,
2008-10-29,1.01, -2.85, 6.39, 2.42, 1.65, 7.78, repro,
2008-10-30,1.20, -2.89, 3.05, 2.31, 1.56, 7.44, repro,
2008-10-31,1.42, -3.45, 4.85, 2.38, 1.63, 7.89, repro,
2008-11-01,1.00, -2.92, 6.10, 2.33, 1.55, 7.43, repro,
2008-11-02,0.74, -3.23, 11.23, 2.35, 1.58, 7.56, repro,
2008-11-03,0.42, -3.62, 8.77, 2.37, 1.58, 7.60, repro,
2008-11-04,0.80, -3.19, 5.36, 2.32, 1.55, 7.45, repro,
2008-11-05,1.31, -2.64, 6.04, 2.35, 1.57, 7.62, repro,
2008-11-06,2.22, -3.01, 3.32, 2.35, 1.56, 7.53, repro,
2008-11-07,1.10, -3.62, 5.05, 2.34, 1.57, 7.56, repro,
2008-11-08,1.62, -4.59, 6.27, 2.41, 1.61, 7.74, repro,
2008-11-09,0.70, -3.36, 8.80, 2.44, 1.62, 7.79, repro,
2008-11-10,0.42, -3.38, 18.79, 2.34, 1.58, 7.66, repro,
2008-11-11,0.38, -3.68, 19.81, 2.47, 1.68, 8.32, repro,
2008-11-12,0.69, -2.18, 18.54, 2.34, 1.57, 7.53, repro,
2008-11-13,1.60, -1.98, 8.48, 2.34, 1.57, 7.54, repro,
2008-11-14,0.08, -2.20, 2.32, 2.37, 1.60, 7.81, repro,
2008-11-15,1.84, -4.11, -5.33, 2.40, 1.63, 7.80, repro,
2008-11-16,0.87, -3.88, -7.25, 2.38, 1.61, 7.87, repro,
2008-11-17,2.41, -3.53, -7.57, 2.42, 1.61, 7.77, repro,
2008-11-18,2.03, -3.49, -5.96, 2.53, 1.75, 8.49, repro,
2008-11-19,1.51, -4.63, -6.98, 2.38, 1.61, 7.82, repro,
2008-11-20,1.37, -4.42, 2.07, 2.41, 1.61, 7.74, repro,
2008-11-21,2.98, -4.53, 6.96, 2.52, 1.70, 8.30, repro,
2008-11-22,0.78, -3.07, 10.89, 2.48, 1.69, 8.39, repro,
2008-11-23,1.80, -3.73, 4.41, 2.48, 1.66, 8.24, repro,
2008-11-24,1.38, -4.12, 15.15, 2.52, 1.75, 8.48, repro,
2008-11-25,-0.24, -3.56, 15.06, 2.44, 1.64, 8.06, repro,
2008-11-26,1.52, -2.85, 8.58, 2.36, 1.58, 7.54, repro,
2008-11-27,1.61, -2.01, 1.43, 2.41, 1.62, 7.89, repro,
2008-11-28,0.49, -2.31, 9.86, 2.44, 1.63, 8.02, repro,
2008-11-29,0.07, -3.40, 6.33, 2.50, 1.70, 8.48, repro,
2008-11-30,0.88, -2.78, 6.89, 2.31, 1.55, 7.39, repro,
2008-12-01,2.60, -2.57, -3.16, 2.28, 1.52, 7.23, repro,
2008-12-02,2.83, -3.75, -1.51, 2.36, 1.58, 7.59, repro,
2008-12-03,1.90, -3.45, -2.03, 2.33, 1.55, 7.51, repro,
2008-12-04,1.55, -2.24, 4.93, 2.58, 1.70, 8.35, repro,
2008-12-05,2.97, -4.32, 13.64, 2.41, 1.65, 7.80, repro,
2008-12-06,1.94, -4.88, 16.16, 2.47, 1.70, 8.17, repro,
2008-12-07,0.85, -4.82, 12.49, 2.49, 1.71, 8.24, repro,
2008-12-08,2.10, -3.35, 9.40, 2.41, 1.63, 7.90, repro,
2008-12-09,-0.36, -2.09, 19.10, 2.51, 1.71, 8.24, repro,
2008-12-10,0.06, -3.04, 5.97, 2.40, 1.59, 7.69, repro,
2008-12-11,1.90, -1.17, -3.48, 2.32, 1.58, 7.65, repro,
2008-12-12,2.47, -1.39, -7.95, 2.65, 1.79, 8.65, repro,
2008-12-13,1.96, -1.87, -14.30, 2.46, 1.72, 8.15, repro,
2008-12-14,1.45, -2.96, -10.76, 2.33, 1.55, 7.50, repro,
2008-12-15,2.20, -3.33, -9.33, 2.34, 1.56, 7.58, repro,
2008-12-16,2.13, -2.81, -10.14, 2.27, 1.53, 7.25, repro,
2008-12-17,1.03, -2.31, -9.60, 2.29, 1.54, 7.40, repro,
2008-12-18,1.33, -3.57, -4.48, 2.26, 1.53, 7.20, repro,
2008-12-19,1.06, -3.52, -3.38, 2.36, 1.59, 7.43, repro,
2008-12-20,1.10, -3.19, -7.65, 2.36, 1.58, 7.49, repro,
2008-12-21,1.20, -2.57, -4.99, 2.34, 1.59, 7.48, repro,
2008-12-22,0.93, -3.35, 1.35, 2.26, 1.52, 7.22, repro,
2008-12-23,0.64, -3.15, 1.97, 2.25, 1.52, 7.18, repro,
2008-12-24,-0.38, -3.68, 7.42, 2.28, 1.52, 7.26, repro,
2008-12-25,0.72, -3.04, 5.83, 2.29, 1.53, 7.28, repro,
2008-12-26,1.38, -3.11, 10.19, 2.30, 1.53, 7.37, repro,
2008-12-27,2.23, -3.91, 8.00, 2.29, 1.53, 7.30, repro,
2008-12-28,2.12, -4.21, 2.68, 2.26, 1.51, 7.17, repro,
2008-12-29,0.35, -4.07, -1.67, 2.31, 1.54, 7.42, repro,
2008-12-30,-0.60, -3.62, -6.77, 2.29, 1.52, 7.26, repro,